Location: Durham
(54.7770°N, 1.5720°W)
Time: 14:00:06
(UTC+01:00)

ISS - Visible Passes

Search period start: 26 May 2017 00:00
Search period end: 05 June 2017 00:00
Orbit: 402 x 408 km, 51.6° (Epoch: 26 May)

Date Brightness Start Highest point End Pass type
(mag) Time Alt. Az. Time Alt. Az. Time Alt. Az.
26 May -3.7 00:48:41 10° WSW 00:51:53 49° S 00:55:05 10° ESE visible
26 May -3.0 02:25:06 10° W 02:28:02 30° SSW 02:30:58 10° SE visible
26 May -2.7 22:21:02 10° SSW 22:23:49 25° SSE 22:26:36 10° E visible
26 May -3.6 23:56:43 10° WSW 23:59:54 47° S 00:03:06 10° E visible
27 May -3.3 01:33:01 10° W 01:36:07 38° SSW 01:39:11 10° SE visible
27 May -2.1 03:10:04 10° WSW 03:12:00 15° SW 03:13:55 10° S visible
27 May -3.5 23:04:46 10° WSW 23:07:56 42° S 23:11:05 10° E visible
28 May -3.5 00:40:58 10° W 00:44:09 44° S 00:47:18 10° ESE visible
28 May -2.4 02:17:38 10° W 02:19:56 20° SW 02:19:56 20° SW visible
28 May -3.6 23:48:56 10° WSW 23:52:09 48° S 23:55:20 10° ESE visible
29 May -2.9 01:25:24 10° W 01:28:16 27° SSW 01:28:33 27° SSW visible
29 May -3.6 22:56:55 10° WSW 23:00:07 48° S 23:03:20 10° ESE visible
30 May -3.2 00:33:16 10° W 00:36:19 35° SSW 00:37:40 24° SSE visible
30 May -3.4 23:41:10 10° W 23:44:19 42° SSW 23:46:57 14° ESE visible
31 May -2.0 01:17:56 10° WSW 01:19:34 17° SW 01:19:34 17° SW visible
31 May -3.5 22:49:05 10° W 22:52:18 47° S 22:55:28 10° ESE visible
01 Jun -2.6 00:25:36 10° W 00:28:22 25° SSW 00:28:56 23° S visible
01 Jun -3.0 23:33:24 10° W 23:36:24 32° SSW 23:38:22 17° SE visible
02 Jun -3.2 22:41:14 10° W 22:44:22 39° SSW 22:47:29 10° ESE visible
03 Jun -2.0 00:18:09 10° WSW 00:20:17 16° SSW 00:20:29 16° SSW visible
03 Jun -2.3 23:25:43 10° W 23:28:21 22° SSW 23:29:59 16° SSE visible
04 Jun -2.7 22:33:26 10° W 22:36:21 29° SSW 22:39:16 10° SE visible
